Weather History for Capo Mele, Italy

Change the Weather History Date:

Sunday, July 14, 2013

  Actual Average Record
Temperature  
Mean Temperature 76 °F -  
Max Temperature 82 °F 78 °F 89 °F (2006)
Min Temperature 69 °F 68 °F 60 °F (2000)
Cooling Degree Days 10    
Growing Degree Days 26 (Base 50)    
Moisture  
Dew Point 68 °F    
Average Humidity 77    
Maximum Humidity 94    
Minimum Humidity 58    
Precipitation  
Precipitation 0.00 in 0.03 in - ()
Sea Level Pressure  
Sea Level Pressure 30.06 in    
Wind  
Wind Speed 10 mph ()    
Max Wind Speed 29 mph    
Max Gust Speed -    
Visibility 8.8 miles    
Events Thunderstorm    
Averages and records for this station are not official NWS values.
T = Trace of Precipitation, MM = Missing Value Source: Averaged Metar Reports

Daily Weather History Graph

Daily Weather History Graph

Search for Another Location

Airport:

Trip Planner

Search our weather history database for the weather conditions in past years. The results will help you decide how hot, cold, wet, or windy it might be!

Date:

Astronomy

Jul. 14, 2013 Rise Set
Actual Time 5:57 AM CEST 9:08 PM CEST
Civil Twilight 5:22 AM CEST 9:43 PM CEST
Nautical Twilight 4:37 AM CEST 10:28 PM CEST
Astronomical Twilight 3:42 AM CEST 11:22 PM CEST
Moon 12:12 PM CEST (7/14) 11:56 PM CEST (7/14)
Length of Visible Light 16h 20m
Length of Day
15h 10m
Waxing Crescent, 32% of the Moon is Illuminated
Jul 14
Waxing Crescent
Jul 16
First Quarter
Jul 22
Full
Jul 29
Last Quarter
Aug 6
New

Hourly Weather History & Observations

Time (CEST) Temp. Heat Index Dew Point Humidity Pressure Visibility Wind Dir Wind Speed Gust Speed Precip Events Conditions
12:00 AM 71 °F - 66 °F 80% 30.05 in 6 mi WSW 10.4 mph - -   Scattered Clouds
12:55 AM 69.8 °F - 64.4 °F 83% 30.06 in 6.2 mi North 6.9 mph - N/A   Partly Cloudy
1:00 AM 71 °F - 65 °F 76% 30.05 in 6 mi North 6.9 mph - -   Scattered Clouds
1:55 AM 71.6 °F - 68.0 °F 88% 30.06 in - NNE 4.6 mph - N/A   Clear
2:00 AM 72 °F - 67 °F 81% 30.05 in 6 mi NNE 8.9 mph - -   Scattered Clouds
2:55 AM 71.6 °F - 66.2 °F 83% 30.06 in - North 9.2 mph - N/A   Clear
3:00 AM 71 °F - 67 °F 82% 30.05 in 6 mi North 9.2 mph - -  
3:55 AM 69.8 °F - 66.2 °F 88% 30.06 in - North 5.8 mph - N/A   Clear
4:00 AM 71 °F - 66 °F 79% 30.05 in 6 mi North 11.2 mph - -   Scattered Clouds
4:55 AM 69.8 °F - 64.4 °F 83% 30.06 in - North 11.5 mph - N/A   Clear
5:00 AM 70 °F - 64 °F 77% 30.06 in 6 mi North 22.4 mph - -   Scattered Clouds
5:55 AM 69.8 °F - 64.4 °F 83% 30.06 in - North 5.8 mph - N/A   Clear
6:00 AM 70 °F - 64 °F 77% 30.06 in 6 mi North 5.8 mph - -   Scattered Clouds
6:55 AM 69.8 °F - 66.2 °F 88% 30.06 in - North 5.8 mph - N/A   Clear
7:00 AM 71 °F - 66 °F 80% 30.05 in 6 mi North 11.2 mph - -   Scattered Clouds
7:55 AM 71.6 °F - 68.0 °F 88% 30.09 in - NNE 9.2 mph - N/A   Clear
8:00 AM 72 °F - 67 °F 81% 30.08 in 6 mi NNE 17.9 mph - -   Partly Cloudy
8:55 AM 75.2 °F - 69.8 °F 83% 30.09 in - NNE 9.2 mph - N/A   Clear
9:00 AM 75 °F - 71 °F 82% 30.08 in 6 mi NNE 17.9 mph - -   Scattered Clouds
9:55 AM 77.0 °F - 69.8 °F 78% 30.09 in - NE 9.2 mph - N/A   Clear
10:00 AM 77 °F - 71 °F 75% 30.07 in 12 mi NE 9.2 mph - -   Scattered Clouds
10:55 AM 77.0 °F - 68.0 °F 74% 30.09 in 6.2 mi NE 13.8 mph - N/A   Partly Cloudy
11:00 AM 78 °F - 69 °F 66% 30.08 in 12 mi NE 26.8 mph - -   Scattered Clouds
11:55 AM 80.6 °F 83.2 °F 68.0 °F 65% 30.09 in 6.2 mi ENE 12.7 mph - N/A   Partly Cloudy
12:00 PM 81 °F - 69 °F 58% 30.07 in 12 mi ENE 24.6 mph - -   Scattered Clouds
12:55 PM 82.4 °F 86.3 °F 69.8 °F 66% 30.09 in 6.2 mi East 15.0 mph - N/A   Partly Cloudy
1:00 PM 82 °F - 70 °F 59% 30.07 in 12 mi East 29.1 mph - -   Scattered Clouds
1:55 PM 80.6 °F 83.2 °F 68.0 °F 65% 30.09 in 6.2 mi SSE 5.8 mph - N/A   Partly Cloudy
2:00 PM 81 °F - 69 °F 58% 30.08 in 12 mi SSE 11.2 mph - -   Scattered Clouds
2:55 PM 77.0 °F - 68.0 °F 74% 30.09 in 6.2 mi SW 9.2 mph - N/A Thunderstorm Thunderstorm
3:00 PM 78 °F - 68 °F 65% 30.07 in 12 mi SW 17.9 mph - - Thunderstorm Thunderstorm
3:55 PM 75.2 °F - 68.0 °F 78% 30.09 in 6.2 mi SW 15.0 mph - N/A Thunderstorm Thunderstorm
4:00 PM 74 °F - 68 °F 76% 30.08 in 12 mi SW 15.0 mph - - Thunderstorm Thunderstorm
4:55 PM 77.0 °F - 71.6 °F 83% 30.06 in - SW 11.5 mph - N/A   Clear
5:00 PM 78 °F - 71 °F 75% 30.06 in 12 mi SW 22.4 mph - - Thunderstorm Light Thunderstorm
5:55 PM 77.0 °F - 73.4 °F 89% 30.06 in - SW 10.4 mph - N/A   Clear
6:00 PM 77 °F - 73 °F 85% 30.04 in 12 mi SW 10.4 mph - -   Scattered Clouds
6:55 PM 73.4 °F - 71.6 °F 94% 30.04 in - SW 12.7 mph - N/A   Clear
7:00 PM 74 °F - 71 °F 89% 30.04 in 12 mi SW 24.6 mph - -   Scattered Clouds
7:55 PM 75.2 °F - 71.6 °F 89% 30.04 in - West 3.5 mph - N/A   Clear
8:00 PM 75 °F - 72 °F 86% 30.03 in 12 mi West 3.5 mph - -   Partly Cloudy
8:55 PM 77.0 °F - 68.0 °F 74% 30.04 in - NNW 2.3 mph - N/A   Clear
9:00 PM 77 °F - 68 °F 67% 30.03 in 12 mi NNW 4.5 mph - -   Clear
9:55 PM 75.2 °F - 64.4 °F 69% 30.04 in - NNE 3.5 mph - N/A   Clear
10:00 PM 76 °F - 65 °F 60% 30.03 in 12 mi NNE 6.7 mph - -  
10:55 PM 75.2 °F - 68.0 °F 78% 30.06 in - NE 6.9 mph - N/A   Clear
11:00 PM 75 °F - 69 °F 75% 30.05 in 12 mi NE 6.9 mph - -  
11:55 PM 73.4 °F - 68.0 °F 83% 30.09 in - North 4.6 mph - N/A   Clear